Date String (YYYY-MM-DD hh:mm:ss) UTC,Instrument flags,Ambient pressure (hPa),Sample flow (lpm),Bypass flow (lpm),Sample temperature (°C),Ambient temperature (°C),ASC tube jacket temperature (°C),LED temperature (°C),Box temperature (°C),Sample RH (%),Span deviation,Mass concentration (μg/m³),Mass concentration (μg/m³),Mass concentration (μg/m³)
DateTimeUTC,F1_M11,P_M11,Q1_M11,Q2_M11,T1_M11,T2_M11,T3_M11,T4_M11,T5_M11,U1_M11,ZSPAN_M11,X2_M11,X0_M11,X1_M11
2023-05-28 11:00:00,,0828.6,5.00,0.00,28.8,27.1,00.0,37.2,30.4,19.5,0000.0,0003.96,0007.77,0003.19
2023-05-28 11:01:00,,0828.7,5.00,0.00,28.8,27.1,00.0,37.2,30.4,19.6,0000.0,0003.95,0007.62,0003.19
2023-05-28 11:02:00,,0828.7,5.00,0.00,28.8,27.1,00.0,37.2,30.4,19.6,0000.0,0003.93,0007.57,0003.19
2023-05-28 11:03:00,,0828.7,5.00,0.00,28.8,27.1,00.0,37.2,30.4,19.6,0000.0,0003.95,0007.54,0003.18
2023-05-28 11:04:00,,0828.7,5.00,0.00,28.8,27.0,00.0,37.2,30.4,19.5,0000.0,0003.98,0007.66,0003.19
2023-05-28 11:05:00,,0828.7,5.00,0.00,28.8,27.0,00.0,37.2,30.4,19.7,0000.0,0003.97,0007.59,0003.19
2023-05-28 11:06:00,,0828.8,5.00,0.00,28.8,27.1,00.0,37.2,30.4,19.9,0000.0,0003.97,0007.55,0003.19
2023-05-28 11:07:00,,0828.8,5.00,0.00,28.8,27.1,00.0,37.2,30.4,19.8,0000.0,0003.94,0007.81,0003.18
2023-05-28 11:08:00,,0828.8,5.00,0.00,28.8,27.1,00.0,37.2,30.4,20.0,0000.0,0003.96,0008.05,0003.19
2023-05-28 11:09:00,,0828.8,5.00,0.00,28.8,27.1,00.0,37.2,30.4,19.9,0000.0,0003.93,0008.01,0003.17
2023-05-28 11:10:00,,0828.8,5.00,0.00,28.8,27.1,00.0,37.2,30.4,19.7,0000.0,0003.89,0007.91,0003.17
2023-05-28 11:11:00,,0828.8,5.00,0.00,28.9,27.1,00.0,37.2,30.4,19.6,0000.0,0003.87,0007.95,0003.18
2023-05-28 11:12:00,,0828.9,5.00,0.00,28.9,27.1,00.0,37.2,30.4,19.4,0000.0,0003.85,0007.95,0003.17
2023-05-28 11:13:00,,0828.9,5.00,0.00,28.9,27.1,00.0,37.2,30.4,19.3,0000.0,0003.85,0008.32,0003.17
2023-05-28 11:14:00,,0828.9,5.00,0.00,28.9,27.1,00.0,37.2,30.4,19.3,0000.0,0003.84,0008.71,0003.16
2023-05-28 11:15:00,,0828.9,5.00,0.00,28.9,27.1,00.0,37.2,30.4,19.4,0000.0,0003.83,0008.80,0003.16
2023-05-28 11:16:00,,0828.9,5.00,0.00,28.9,27.1,00.0,37.2,30.4,19.5,0000.0,0003.82,0008.88,0003.16
2023-05-28 11:17:00,,0829.0,4.99,0.00,28.9,27.1,00.0,37.2,30.4,19.5,0000.0,0003.83,0008.91,0003.15
2023-05-28 11:18:00,,0828.9,5.00,0.00,28.9,27.1,00.0,37.2,30.4,19.5,0000.0,0003.82,0008.58,0003.14
2023-05-28 11:19:00,,0828.9,5.00,0.00,28.9,27.1,00.0,37.2,30.4,19.5,0000.0,0003.80,0008.38,0003.14
2023-05-28 11:20:00,,0828.9,5.00,0.00,28.9,27.1,00.0,37.2,30.4,19.7,0000.0,0003.78,0008.35,0003.13
2023-05-28 11:21:00,,0828.8,5.00,0.00,28.9,27.1,00.0,37.2,30.4,20.3,0000.0,0003.78,0008.40,0003.14
2023-05-28 11:22:00,,0828.8,5.01,0.00,28.9,27.1,00.0,37.2,30.4,20.4,0000.0,0003.78,0008.44,0003.14
2023-05-28 11:23:00,,0828.8,5.00,0.00,28.9,27.1,00.0,37.2,30.4,20.9,0000.0,0003.79,0008.76,0003.15
2023-05-28 11:24:00,,0828.8,5.00,0.00,28.9,27.1,00.0,37.2,30.4,21.0,0000.0,0003.81,0008.77,0003.17
2023-05-28 11:25:00,,0828.8,5.00,0.00,28.9,27.1,00.0,37.2,30.4,21.4,0000.0,0003.85,0008.34,0003.17
2023-05-28 11:26:00,,0828.9,5.00,0.00,28.9,27.1,00.0,37.2,30.4,21.7,0000.0,0003.84,0008.25,0003.17
2023-05-28 11:27:00,,0828.9,5.00,0.00,28.8,27.1,00.0,37.2,30.4,21.4,0000.0,0003.87,0008.15,0003.17
2023-05-28 11:28:00,,0828.9,5.00,0.00,28.8,27.1,00.0,37.2,30.4,20.7,0000.0,0003.87,0008.16,0003.18
2023-05-28 11:29:00,,0829.0,5.00,0.00,28.8,27.0,00.0,37.2,30.4,20.4,0000.0,0003.86,0008.18,0003.18
2023-05-28 11:30:00,,0828.9,5.00,0.00,28.8,27.0,00.0,37.2,30.4,19.5,0000.0,0003.87,0008.53,0003.18
2023-05-28 11:31:00,,0828.9,5.00,0.00,28.8,27.0,00.0,37.2,30.4,18.3,0000.0,0003.85,0008.47,0003.17
2023-05-28 11:32:00,,0828.9,5.00,0.00,28.8,27.0,00.0,37.2,30.4,17.9,0000.0,0003.84,0008.40,0003.17
2023-05-28 11:33:00,,0829.0,5.00,0.00,28.8,27.0,00.0,37.2,30.3,17.9,0000.0,0003.90,0008.50,0003.16
2023-05-28 11:34:00,,0829.0,5.00,0.00,28.8,27.0,00.0,37.2,30.3,17.7,0000.0,0003.89,0008.21,0003.14
2023-05-28 11:35:00,,0829.0,5.01,0.00,28.8,27.0,00.0,37.1,30.3,17.6,0000.0,0003.87,0008.04,0003.11
2023-05-28 11:36:00,,0829.1,5.00,0.00,28.8,27.0,00.0,37.1,30.3,17.5,0000.0,0003.85,0007.93,0003.10
2023-05-28 11:37:00,,0829.1,5.00,0.00,28.8,27.0,00.0,37.1,30.3,18.0,0000.0,0003.86,0007.98,0003.09
2023-05-28 11:38:00,,0829.1,4.99,0.00,28.8,27.0,00.0,37.1,30.3,18.2,0000.0,0003.87,0008.01,0003.08
2023-05-28 11:39:00,,0829.1,4.99,0.00,28.7,27.0,00.0,37.1,30.3,18.0,0000.0,0003.85,0007.95,0003.06
2023-05-28 11:40:00,,0829.1,5.00,0.00,28.7,27.0,00.0,37.1,30.3,18.0,0000.0,0003.85,0007.94,0003.05
2023-05-28 11:41:00,,0829.1,5.00,0.00,28.7,27.0,00.0,37.1,30.3,17.7,0000.0,0003.88,0007.63,0003.04
2023-05-28 11:42:00,,0829.2,5.01,0.00,28.7,27.0,00.0,37.1,30.3,17.6,0000.0,0003.92,0007.53,0003.04
2023-05-28 11:43:00,,0829.1,5.00,0.00,28.7,27.0,00.0,37.1,30.3,17.7,0000.0,0003.92,0007.52,0003.04
2023-05-28 11:44:00,,0829.1,5.00,0.00,28.7,26.9,00.0,37.1,30.3,18.0,0000.0,0003.87,0007.33,0003.03
2023-05-28 11:45:00,,0829.1,5.00,0.00,28.7,26.9,00.0,37.1,30.3,17.9,0000.0,0003.85,0007.25,0003.03
2023-05-28 11:46:00,,0829.1,4.98,0.00,28.7,26.9,00.0,37.1,30.3,18.1,0000.0,0003.84,0007.15,0003.03
2023-05-28 11:47:00,,0829.2,4.99,0.00,28.7,26.9,00.0,37.1,30.3,19.2,0000.0,0003.84,0007.08,0003.04
2023-05-28 11:48:00,,0829.2,5.01,0.00,28.7,26.9,00.0,37.1,30.3,19.6,0000.0,0003.83,0006.93,0003.05
2023-05-28 11:49:00,,0829.2,5.01,0.00,28.7,26.9,00.0,37.1,30.3,19.3,0000.0,0003.80,0006.81,0003.04
2023-05-28 11:50:00,,0829.2,5.01,0.00,28.7,26.9,00.0,37.1,30.3,19.6,0000.0,0003.81,0006.84,0003.04
2023-05-28 11:51:00,,0829.3,5.00,0.00,28.7,26.9,00.0,37.1,30.3,20.2,0000.0,0003.82,0006.93,0003.04
2023-05-28 11:52:00,,0829.2,4.99,0.00,28.7,27.0,00.0,37.1,30.3,20.5,0000.0,0003.79,0006.89,0003.06
2023-05-28 11:53:00,,0829.3,4.99,0.00,28.7,27.0,00.0,37.1,30.3,20.5,0000.0,0003.76,0006.76,0003.05
2023-05-28 11:54:00,,0829.3,5.00,0.00,28.7,27.0,00.0,37.1,30.3,20.4,0000.0,0003.79,0006.94,0003.06
2023-05-28 11:55:00,,0829.3,4.99,0.00,28.7,27.0,00.0,37.1,30.3,20.6,0000.0,0003.78,0007.03,0003.06
2023-05-28 11:56:00,,0829.3,5.00,0.00,28.7,27.0,00.0,37.1,30.3,20.8,0000.0,0003.77,0007.00,0003.07
2023-05-28 11:57:00,,0829.3,5.00,0.00,28.7,27.0,00.0,37.1,30.3,20.6,0000.0,0003.81,0007.22,0003.09
2023-05-28 11:58:00,,0829.2,5.00,0.00,28.7,27.0,00.0,37.1,30.3,20.7,0000.0,0003.81,0007.22,0003.08
2023-05-28 11:59:00,,0829.2,5.00,0.00,28.7,27.0,00.0,37.1,30.3,21.0,0000.0,0003.80,0007.28,0003.08
